Home   Weather   Alofi   Past weeks

Flag for Niue Past Weather in Alofi, Niue — Yesterday and Last 2 Weeks

Now
86 °F

Partly sunny.


Feels Like: 99 °F
Forecast: 75 / 85 °F
Wind: 9 mph from South

Location: Alofi / Niue

Current Time: Jan 23, 2017 at 1:55:21 pm

Latest Report: Jan 23, 2017 at 1:00 pm


Visibility: N/A

Pressure: 29.77 "Hg

Humidity: 79%

Dew Point: 79 °F

Location of AlofiLocation

Past Weather in Alofi — Graph

°F

Alofi Temperature Yesterday

Maximum temperature yesterday: 86 °F (at 10:00 am)
Minimum temperature yesterday: 77 °F (at 1:00 am)
Average temperature yesterday: 82 °F

High & Low Weather Summary for the Past Weeks

 TemperatureHumidityPressure
High90 °F (Jan 9, 3:00 pm)100% (Jan 9, 2:00 am)29.95 "Hg (Jan 9, 2:00 am)
Low73 °F (Jan 10, 3:00 am)62% (Jan 10, 1:00 pm)29.62 "Hg (Jan 17, 4:00 pm)
Average81 °F84%29.78 "Hg
* Reported Jan 8 12:00 pm — Jan 23 12:00 pm, Alofi, Weather by CustomWeather, © 2017

Note: Actual official high and low records may vary slightly from our data, if they occured in-between our weather recording intervals... More about our weather records

Advertising

Alofi Weather History for the Previous 24 Hours

Scroll right to see more
 ConditionsComfort  
Time TempWeatherWind HumidityBarometerVisibility
12:00 pm
Mon, Jan 23
88 °FScattered clouds.9 mph75%29.80 "HgN/A
11:00 am88 °FScattered clouds.8 mph70%29.80 "HgN/A
10:00 am86 °FScattered clouds.7 mph79%29.83 "HgN/A
9:00 am88 °FScattered clouds.2 mph70%29.80 "HgN/A
8:00 am84 °FPassing clouds.2 mph84%29.80 "HgN/A
7:00 am77 °FWarm.1 mph94%29.80 "HgN/A
6:00 am75 °FMild.1 mph94%29.77 "HgN/A
5:00 am75 °FMild.1 mph94%29.77 "HgN/A
4:00 am75 °FMild.1 mph100%29.77 "HgN/A
3:00 am77 °FWarm.No wind94%29.77 "HgN/A
2:00 am77 °FWarm.No wind94%29.77 "HgN/A
1:00 am79 °FWarm.1 mph94%29.80 "HgN/A
12:00 am79 °FWarm.1 mph94%29.83 "HgN/A
11:00 pm
Sun, Jan 22
79 °FWarm.No wind94%29.83 "HgN/A
10:00 pm79 °FWarm.1 mph94%29.80 "HgN/A
9:00 pm81 °FWarm.No wind89%29.80 "HgN/A
8:00 pm81 °FWarm.2 mph89%29.80 "HgN/A
7:00 pm84 °FWarm.2 mph79%29.77 "HgN/A
6:00 pm86 °FWarm.3 mph75%29.74 "HgN/A
5:00 pm86 °FWarm.3 mph75%29.71 "HgN/A
4:00 pm86 °FWarm.6 mph75%29.71 "HgN/A
3:00 pm86 °FWarm.5 mph75%29.74 "HgN/A
2:00 pm86 °FWarm.5 mph70%29.74 "HgN/A
1:00 pm86 °FWarm.6 mph75%29.74 "HgN/A
Weather by CustomWeather, © 2017

See weather overviewHow to use our weather pages